Regional Weather Roundup
Issued by NWS Northern Indiana

Home | Current Version | Previous Version | Graphics & Text | Print | Product List | Glossary On
Versions: 1 2 3 4 5 6 7 8 9 10 11 12 13 14 15 16 17 18 19 20 21 22 23 24 25 26 27 28 29 30 31 32 33 34 35 36 37 38 39 40 41 42 43 44 45 46 47 48 49 50
000
ASUS43 KIWX 230410
RWRIWX

KIWX WEATHER ROUNDUP
NATIONAL WEATHER SERVICE NORTHERN INDIANA
1200 AM EDT SAT MAY 23 2015

NOTE: "FAIR" INDICATES FEW OR NO CLOUDS BELOW 12,000 FEET WITH NO
SIGNIFICANT WEATHER AND/OR OBSTRUCTIONS TO VISIBILITY.

* THESE STATIONS ARE NOT UNDER NWS QUALITY CONTROL. THEY ALSO MAY NOT
  REPORT WEATHER SUCH AS PRECIPITATION OR FOG.

INZ001>027-230500-
NORTHERN INDIANA

CITY           SKY/WX    TMP DP  RH WIND       PRES   REMARKS
GARY*          MOCLDY    51  47  84 CALM      30.30S
VALPARAISO     CLOUDY    51  39  63 E6        30.30S
MICHIGAN CITY* CLOUDY    50  36  57 CALM      30.30S
LAPORTE*       CLOUDY    56  39  54 CALM      30.31S
KNOX*          MOCLDY    54  34  47 E3        30.29S
SOUTH BEND     CLOUDY    55  31  39 CALM      30.31S
GOSHEN         MOCLDY    52  35  52 NE7       30.30F
MONTICELLO*    PTCLDY    57  37  47 E7        30.28S
LOGANSPORT*    CLEAR     55  28  35 NE3       30.31R
ROCHESTER*     MOCLDY    59  34  38 NE5       30.30S
WARSAW*        CLOUDY    55  34  44 CALM      30.31R
ANGOLA*        CLEAR     54  34  47 N3        30.30S
FORT WAYNE     MOCLDY    56  37  49 N5        30.31R
HUNTINGTON*    CLOUDY    55  36  48 NE3       30.31R
PERU/GRISSOM   PTCLDY    53  39  60 NE9       30.29R
MARION*        MOCLDY    57  38  48 NE7       30.31R

$$
INZ028>050-230500-
CENTRAL INDIANA

CITY           SKY/WX    TMP DP  RH WIND       PRES   REMARKS
LAFAYETTE      PTCLDY    56  38  50 E5        30.28R
KOKOMO*        PTCLDY    55  34  44 E7        30.30R
MUNCIE*        MOCLDY    58  42  55 NE3       30.30R
INDIANAPOLIS   PTCLDY    62  45  53 SW6       30.28R

$$
MIZ043>046-050>051-056>058-064>065-071>073-077>080-230500-
SOUTHWEST LOWER MICHIGAN

CITY           SKY/WX    TMP DP  RH WIND       PRES   REMARKS
BATTLE CREEK   PTCLDY    50  33  52 CALM      30.32S
BENTON HARBOR  MOCLDY    42  39  89 E3        30.30S
COLDWATER*     MOCLDY    50  33  53 CALM      30.31S
HILLSDALE*     PTCLDY    53  33  45 N3        30.31S
HOLLAND        MOCLDY    45  38  76 CALM      30.31F
GRAND RAPIDS   PTCLDY    48  35  60 SE3       30.32R
KALAMAZOO      MOCLDY    49  32  52 CALM      30.32S
STURGIS*       MOCLDY    48  34  57 CALM      30.31S
THREE RIVERS*  FAIR      48  36  63 N3        30.32R

$$
OHZ001>008-015>018-024>025-230500-
NORTHWEST OHIO

CITY           SKY/WX    TMP DP  RH WIND       PRES   REMARKS
WAUSEON*       FAIR      57  34  41 N6        30.30S
DEFIANCE       MOCLDY    55  37  50 NW3       30.31R
FINDLAY        MOCLDY    54  35  48 CALM      30.29R
TOLEDO EXPRESS PTCLDY    49  40  71 CALM      30.30R
TOLEDO METCALF PTCLDY    52  37  56 CALM      30.30S
LIMA           PTCLDY    53  37  54 E6        30.30R

$$
AND FOR LAKE MICHIGAN COASTAL AND OPEN LAKE BUOY OBSERVATIONS

STATION/POSITION TEMP    WIND        PRES    VSBY  WAVE
                 AIR SEA DIR/SP/G                  HT/PER
                 (F)     (DEG/KT/KT) (MB)    (MI)  (FT/S)
CALUMET HARBOR    52      30/  5/  6   N/A
MICHIGAN CITY     55      70/  5/  6   N/A
BURNS HARBOR      55      60/  6/  6 1026.4S
SAINT JOSEPH      53      40/  2/  4 1026.4R
SOUTH LAKE BUOY   43 38  120/  8/  8 1026.5R         0
4 MI NW BRIDGMAN  55 53  110/  6/  6   N/A           1/ 3
MICHIGAN CITY     53 51  120/  4/  4   N/A           2/ 3

$$
&&


USA.gov is the U.S. government's official web portal to all federal, state and local government web resources and services.